Theta_e
307 300 298 298 299 301 301 302 302 302 299 299 298 296 295 296 295 298 298 313 328 323 320 321 322 321 321 324 329 331 333 332 331 329 330 330 331 331 331 330 330 330 332 335 337 338 339 339 340 342 344 345 346 347 348 349 349 349 349 350 349 351 351 350 347 346 345 344 343 344 345 345 347 348 350 353 354 357 357 359 358 358 358 360 361 361
306 297 299 301 302 303 302 302 301 301 301 300 298 297 295 296 295 298 300 306 326 321 318 322 320 320 321 322 328 331 331 330 330 329 329 330 331 331 331 330 330 331 333 334 335 337 338 339 340 341 342 345 343 345 347 348 349 349 349 349 349 350 350 349 348 347 346 345 345 344 344 345 347 349 351 351 354 356 358 359 359 360 359 360 360 362
299 297 300 304 304 304 302 300 300 300 300 299 298 296 295 294 297 299 300 303 324 321 313 318 318 319 320 321 326 329 330 331 333 332 331 330 330 330 331 331 331 331 331 332 333 335 337 338 339 340 341 343 344 345 346 348 349 348 348 349 349 350 350 349 349 347 346 346 347 346 345 346 346 351 353 352 355 358 358 359 360 361 360 359 360 362
297 299 303 305 304 303 303 300 300 300 299 297 295 295 294 294 296 292 297 305 320 319 312 313 315 314 318 321 324 329 330 331 333 334 333 333 331 330 331 331 331 331 330 331 332 333 336 337 338 339 340 342 343 344 345 347 348 348 348 348 349 349 349 349 349 350 347 347 347 348 346 347 349 349 354 355 356 357 357 357 359 361 360 359 360 361
297 302 305 305 303 303 302 302 300 298 297 297 297 294 294 296 295 297 296 298 318 318 318 314 309 309 316 316 319 326 331 331 332 333 333 333 333 333 334 333 333 332 331 331 332 332 334 335 336 338 340 341 342 343 344 346 347 348 347 348 348 348 349 349 351 350 347 349 345 345 345 348 349 350 350 350 351 355 357 357 358 359 360 360 360 361
299 303 304 303 302 301 301 299 299 299 295 295 297 299 298 296 298 297 297 296 289 290 305 312 298 298 308 316 318 324 326 327 330 330 331 331 332 332 332 332 333 334 334 333 332 332 334 335 336 338 339 340 341 342 344 346 347 348 347 348 348 348 348 348 349 349 346 347 342 340 340 340 342 342 344 345 347 350 354 356 358 359 360 360 360 361
299 304 304 302 301 300 299 299 299 300 296 295 296 300 299 299 298 298 297 295 289 289 298 313 299 295 302 313 317 322 325 325 328 329 330 331 330 331 332 332 333 333 334 335 335 334 333 334 335 337 338 340 340 342 344 346 347 347 347 347 347 347 347 348 348 348 347 345 343 341 340 340 341 341 343 348 350 352 355 358 357 358 360 361 360 361
301 301 301 301 300 299 297 296 299 301 296 293 298 298 300 299 298 297 297 295 291 295 303 309 305 297 296 304 317 323 323 324 325 327 329 331 330 331 332 333 333 334 335 335 335 335 333 334 335 335 338 339 341 343 344 345 346 346 347 347 347 347 348 348 348 347 347 344 343 341 340 341 340 341 342 346 349 353 356 356 357 358 359 361 361 361
300 298 299 298 298 297 296 299 300 302 298 295 298 299 298 299 298 297 296 292 291 296 289 299 304 301 296 302 316 322 319 321 323 325 327 329 330 330 331 333 334 334 335 336 335 335 334 333 335 337 337 339 341 342 343 344 345 346 347 348 347 347 348 347 348 347 346 346 344 343 340 340 342 342 344 348 352 352 356 355 356 357 358 360 361 362
295 296 297 299 297 295 299 300 301 302 298 301 299 300 297 297 296 294 292 292 294 292 289 298 302 297 294 295 313 320 318 319 322 325 327 329 330 330 330 332 334 335 336 337 337 337 337 334 334 337 338 339 340 342 344 344 344 345 346 347 347 346 347 347 347 347 345 346 346 343 341 339 339 344 345 348 349 351 354 353 354 356 357 358 359 361
295 303 303 296 296 298 299 301 302 302 304 299 300 299 298 295 294 296 293 292 293 291 291 298 302 301 291 293 313 314 316 321 323 325 328 329 330 331 331 332 333 334 335 336 337 338 338 338 335 336 337 338 340 341 342 343 343 344 345 346 346 346 347 347 346 347 345 345 345 343 342 340 339 341 343 345 347 350 351 351 352 355 356 357 358 360
293 293 298 298 302 298 298 297 299 302 303 302 297 294 291 293 292 293 287 292 290 282 286 292 302 299 292 292 297 319 322 323 323 323 325 327 329 330 331 332 333 334 335 336 337 337 338 338 336 335 336 337 338 340 340 342 342 343 344 345 345 345 346 347 346 347 345 345 345 344 343 341 340 340 342 344 346 348 350 351 351 354 355 355 357 358
293 292 294 295 310 297 293 294 294 294 298 298 295 294 289 282 286 285 288 286 284 285 289 291 297 297 295 294 296 301 307 314 322 325 325 328 329 330 331 332 333 334 335 335 336 337 337 338 336 334 335 336 337 338 339 340 341 342 343 344 344 344 346 346 346 346 346 345 345 344 343 342 342 341 342 344 346 348 350 350 351 352 352 354 354 355
290 291 292 294 293 298 294 289 287 291 290 295 293 289 287 283 282 278 280 281 282 288 290 289 294 296 294 293 303 307 311 308 313 321 326 327 329 330 331 332 333 333 334 335 336 337 337 338 338 335 335 335 336 337 338 339 341 341 343 344 344 344 345 346 346 346 345 345 345 345 344 343 343 341 341 342 345 348 350 351 351 351 352 353 353 354
282 287 289 291 289 295 294 292 292 291 290 292 292 295 290 285 281 281 280 282 285 286 288 291 293 287 290 295 309 310 313 315 319 320 321 326 329 331 333 333 333 333 334 335 335 336 337 338 338 336 335 335 336 337 338 339 340 341 342 343 344 343 344 345 346 346 345 345 345 345 345 344 344 342 342 341 344 347 348 350 350 351 353 353 354 354
285 284 291 293 294 294 292 295 296 292 292 291 292 294 290 290 289 286 284 283 284 286 286 290 288 289 293 301 307 310 312 318 321 321 322 320 324 330 331 332 332 333 334 334 335 336 337 338 339 337 336 335 336 337 337 338 339 340 341 343 343 344 344 345 346 346 346 346 346 346 345 344 345 346 343 343 345 345 348 349 350 350 352 353 354 355
286 284 291 293 293 294 294 295 295 296 288 293 292 290 292 294 292 289 294 292 288 285 287 288 291 293 297 298 305 306 309 314 319 319 320 320 321 325 330 331 333 334 334 334 335 335 336 338 339 339 337 336 336 336 336 338 339 340 341 342 343 344 344 344 346 346 346 346 345 345 345 345 344 344 342 341 342 342 345 348 350 350 351 352 354 354
284 284 288 291 291 295 296 295 295 295 295 290 287 289 295 296 293 289 285 283 281 282 284 287 290 292 294 288 303 304 304 313 316 316 318 319 321 321 326 331 333 334 335 336 336 337 337 338 339 339 338 337 336 336 336 337 339 340 341 342 342 343 343 344 345 346 346 346 345 345 345 345 345 344 344 343 342 342 343 344 347 349 350 351 352 354
287 282 288 291 291 293 295 293 292 295 297 292 292 297 292 287 289 287 286 282 281 282 283 287 292 294 294 294 299 302 304 311 314 315 316 317 319 321 323 326 332 335 335 336 335 336 336 337 338 338 338 338 338 338 337 337 339 340 341 342 342 342 343 344 345 346 347 347 346 346 345 345 344 344 345 344 344 343 342 342 343 346 349 350 352 354
289 283 285 289 291 292 292 292 284 289 295 296 295 292 293 291 289 286 289 285 285 281 282 283 287 290 297 297 299 302 311 312 313 313 314 316 318 321 324 326 328 333 335 336 336 336 337 338 338 338 338 338 338 338 337 337 338 338 340 342 342 343 344 345 345 346 346 346 347 346 346 346 346 345 345 345 344 341 341 342 342 343 346 348 351 351
287 288 281 287 292 290 285 289 287 288 286 288 289 287 288 288 292 292 290 288 287 282 280 282 284 291 296 302 303 310 312 313 313 313 314 316 317 320 323 327 327 331 334 336 337 337 337 338 338 339 339 339 339 340 339 337 336 338 339 340 342 342 342 343 345 345 346 347 347 347 346 345 345 344 345 344 344 342 341 342 344 342 344 347 349 351
288 285 283 284 285 284 287 291 292 291 290 288 287 285 286 286 285 283 286 289 288 283 281 281 286 292 299 304 306 314 315 314 314 314 314 315 316 318 320 323 327 329 334 336 337 338 338 338 339 340 340 340 339 339 339 337 337 337 338 340 341 342 342 343 344 345 346 347 347 346 346 346 345 345 344 343 344 343 342 341 342 343 344 343 346 349
291 287 282 282 285 286 289 292 294 293 292 291 290 287 289 288 286 281 279 284 286 287 292 287 286 290 302 304 311 316 316 315 314 313 313 314 315 317 318 321 324 329 335 336 337 338 339 339 339 339 339 339 339 339 340 338 337 337 337 339 341 341 342 343 344 346 347 346 346 346 347 346 345 345 343 343 343 343 342 341 341 343 343 343 344 348
302 285 284 284 284 287 289 291 294 293 291 288 289 290 289 286 287 286 283 285 285 285 282 283 287 290 300 305 314 315 316 317 317 314 312 313 315 316 317 318 320 323 326 333 340 338 339 339 339 339 339 339 339 339 339 339 339 338 337 338 340 341 342 343 344 345 346 346 346 346 346 346 346 344 343 342 343 342 343 342 341 343 342 342 343 345
285 285 282 278 277 280 283 286 288 290 291 288 286 288 289 289 289 290 289 289 286 286 286 282 283 288 296 303 314 312 313 314 314 316 314 312 313 315 316 317 319 320 322 324 329 334 338 338 338 338 339 339 340 339 340 340 340 339 338 338 339 340 342 343 344 344 345 346 345 345 345 345 345 344 343 342 342 342 343 343 341 341 341 341 342 344
288 287 281 276 276 276 277 276 278 282 284 287 288 288 289 288 288 286 283 285 278 287 287 284 284 289 294 305 310 309 311 312 313 314 316 314 314 314 315 317 317 318 319 320 322 325 328 332 336 341 339 339 339 339 340 341 340 340 340 339 340 340 341 342 343 344 344 345 345 345 344 344 344 344 343 343 342 342 343 343 342 341 341 341 340 342
287 287 283 279 276 276 278 282 287 293 285 282 285 287 288 288 288 288 286 282 281 284 285 285 289 288 290 304 305 306 308 309 309 311 312 312 313 314 315 316 317 317 318 319 320 321 324 326 328 331 336 340 339 340 340 340 341 341 341 341 341 341 342 342 343 344 343 344 344 344 344 344 344 344 343 343 343 343 343 342 343 342 341 342 341 340
287 284 286 286 284 284 286 287 288 290 285 285 286 286 288 288 288 288 284 283 287 283 279 288 289 287 289 305 305 304 306 308 308 309 310 312 312 313 315 316 319 316 317 318 319 319 321 323 325 327 329 332 338 341 340 341 342 342 342 341 342 342 342 343 343 343 343 344 344 344 344 344 345 344 344 344 344 343 342 342 342 343 343 343 342 340
285 283 288 288 286 287 286 286 288 288 287 287 287 286 287 288 287 286 286 286 287 283 282 286 289 289 294 303 306 305 306 306 307 308 310 312 312 313 313 314 314 314 316 317 318 319 320 320 322 324 326 328 331 334 340 341 342 343 344 343 344 343 343 344 343 343 343 344 344 344 345 346 345 345 345 346 344 343 342 342 342 342 342 343 343 343
285 283 288 287 286 286 286 287 288 287 287 287 287 287 287 287 287 287 286 287 288 287 288 288 289 291 302 303 306 306 307 307 307 309 310 310 310 311 311 312 313 314 314 315 317 318 319 320 321 322 324 326 328 330 334 338 341 342 343 343 344 345 345 345 344 343 343 343 344 346 347 347 347 346 346 345 344 344 343 342 342 341 341 341 342 343
286 285 293 286 284 285 287 290 287 287 287 285 286 287 287 287 286 287 287 287 292 288 288 288 288 290 302 305 307 308 308 308 307 306 307 309 310 310 310 310 312 313 314 315 316 317 318 319 320 321 322 324 326 329 331 333 340 342 343 344 344 345 346 346 345 344 344 344 345 346 347 348 347 347 346 345 345 345 344 343 342 342 341 340 340 341
287 283 285 282 280 281 285 287 287 288 287 285 284 285 286 286 287 289 290 293 291 288 290 290 289 291 300 304 307 307 306 305 304 305 306 307 308 309 309 310 310 312 313 314 316 317 317 318 319 320 321 323 326 328 329 332 335 339 342 344 345 345 347 347 346 345 345 346 347 347 347 348 348 348 347 347 346 346 345 344 343 342 341 340 339 340
284 282 281 280 277 278 282 286 286 286 281 279 281 285 288 288 289 291 297 301 299 299 292 288 289 299 301 305 303 304 305 305 305 305 306 307 308 309 308 309 310 311 312 313 315 316 317 317 319 320 321 323 326 327 330 332 332 334 336 343 346 347 347 347 347 347 347 347 347 348 348 349 348 348 348 348 347 347 346 345 344 343 342 340 341 340
287 284 282 283 279 277 281 284 286 279 274 276 286 291 291 291 292 293 295 298 300 300 297 298 300 302 302 302 301 301 305 305 306 307 309 308 308 308 309 309 309 311 312 314 314 316 317 318 320 321 322 323 326 328 330 333 333 334 337 341 347 347 348 348 349 348 348 349 348 349 349 349 349 348 349 349 349 348 347 346 345 344 344 343 343 341
290 284 282 281 280 278 280 282 279 273 275 285 290 292 293 297 297 299 298 298 299 302 302 300 301 300 301 303 303 303 305 308 309 308 307 309 310 309 309 309 309 310 311 312 314 315 317 318 319 320 321 323 326 327 328 331 332 335 337 341 344 346 345 349 349 349 349 349 349 349 349 348 348 348 349 349 349 348 347 347 346 346 345 345 343 342
285 283 285 283 280 280 278 276 269 272 282 288 289 295 300 297 296 298 298 298 299 299 301 300 302 302 302 302 303 304 304 307 308 309 308 308 310 311 310 309 310 311 310 312 313 315 316 317 318 319 321 325 325 326 329 329 332 334 337 341 343 344 345 345 346 348 349 348 348 348 348 347 347 349 350 350 350 349 348 348 347 346 347 347 345 345
288 286 285 281 282 278 278 276 277 283 285 284 290 293 294 289 292 290 287 291 298 299 299 299 300 302 303 303 303 304 305 307 307 308 308 308 308 310 312 312 312 312 312 313 314 314 317 318 319 320 323 323 323 326 327 330 332 335 338 341 342 344 345 344 344 344 345 348 349 349 349 349 349 350 350 351 350 350 349 349 349 349 349 347 347 345
289 286 284 282 281 281 278 277 275 274 273 279 289 296 298 298 298 297 293 290 298 298 300 299 299 300 301 302 303 303 304 306 302 302 305 307 309 309 310 313 314 313 314 314 315 316 317 318 320 322 322 321 323 325 327 329 331 333 337 340 342 343 345 345 344 345 346 347 348 351 352 352 351 351 352 352 351 351 351 352 352 351 352 349 348 347
290 288 286 284 283 281 280 275 273 270 277 284 289 292 296 297 298 297 290 285 298 296 299 300 299 300 300 300 302 302 299 295 295 300 304 306 308 309 309 310 312 314 314 314 314 314 316 317 320 321 321 321 320 323 326 328 331 333 335 338 340 341 341 342 343 344 345 346 348 350 352 354 353 353 353 353 353 353 353 353 353 354 354 352 351 350
286 285 282 281 281 282 280 276 275 279 277 286 291 294 296 298 298 291 279 281 293 296 299 301 299 299 299 299 301 299 298 294 296 300 305 307 308 309 309 309 310 311 312 314 315 317 318 319 318 319 319 319 320 323 325 327 329 331 332 334 338 339 338 339 341 343 344 346 348 349 352 354 355 355 354 354 354 355 355 356 355 355 355 354 354 352
282 283 282 280 280 284 285 279 280 282 290 294 293 296 297 298 293 282 278 289 295 296 300 300 299 299 299 298 299 295 299 301 302 304 307 308 307 308 309 310 310 311 312 313 314 319 317 316 317 317 319 320 321 322 324 327 328 329 329 332 334 335 336 339 341 342 344 346 347 346 346 350 354 355 356 356 356 356 357 357 356 356 355 354 355 354
281 282 285 282 280 279 281 279 280 282 288 293 295 297 298 292 281 279 289 295 295 297 300 299 298 299 299 298 297 298 299 302 304 305 305 306 306 307 308 309 309 310 312 314 316 317 316 316 316 317 318 320 321 322 324 325 324 325 327 328 328 331 333 335 338 341 343 345 346 347 346 344 345 349 353 355 354 351 351 355 358 357 356 355 355 354
280 279 277 280 282 283 284 282 281 277 290 296 296 294 297 287 286 292 294 296 300 298 297 297 297 298 298 297 298 298 299 301 302 303 304 305 305 306 307 308 308 308 309 310 312 314 317 315 315 316 317 319 320 321 324 324 323 323 324 325 327 329 330 331 334 337 340 345 347 349 349 347 346 346 345 348 353 353 351 353 356 356 356 356 355 354
281 280 278 280 285 280 281 280 281 287 292 297 293 286 291 296 295 296 297 294 296 296 296 295 296 297 298 297 297 298 299 300 301 302 303 304 305 306 307 308 308 309 310 311 312 313 316 315 315 315 317 319 321 321 322 324 322 322 322 323 326 327 329 329 330 333 339 344 349 349 350 349 347 348 350 349 349 349 350 353 354 355 356 356 355 354
287 284 283 277 284 283 281 284 290 291 294 295 295 294 294 296 297 298 297 295 294 294 297 296 296 297 297 298 298 298 298 300 300 302 301 302 303 304 305 307 308 308 309 309 310 314 315 314 314 314 316 319 320 322 322 323 322 322 321 323 326 326 326 327 329 332 338 342 342 345 351 353 353 354 353 352 350 347 346 346 349 352 354 355 354 353
288 289 287 288 285 288 290 291 292 292 293 294 297 298 296 296 298 297 296 294 295 296 297 296 296 297 297 298 297 297 299 300 300 301 302 302 303 304 307 307 307 309 309 310 310 311 314 314 314 314 314 318 320 321 323 322 322 320 321 325 325 325 325 326 327 329 333 336 338 339 340 341 345 350 352 352 351 350 348 346 347 347 350 353 353 353
287 289 288 285 287 284 280 288 291 292 293 294 295 296 297 297 296 296 295 295 295 296 296 297 297 297 297 298 297 297 298 300 300 301 302 302 302 303 304 305 306 308 308 308 310 312 311 312 312 313 314 315 319 320 321 321 322 323 323 323 323 324 325 325 325 326 328 330 333 336 338 339 341 344 348 351 352 353 350 348 347 347 347 348 351 352
285 291 288 287 284 284 285 287 290 292 293 294 294 293 293 294 296 297 297 296 297 297 298 297 298 297 298 297 298 298 299 300 300 300 300 301 301 303 303 304 305 306 308 309 310 311 311 311 311 312 314 315 317 320 321 321 322 322 323 323 323 324 324 324 325 325 326 327 329 332 335 337 341 343 346 349 351 351 351 349 347 346 345 346 350 351
288 294 284 286 286 287 289 291 292 292 292 293 294 295 295 295 295 295 296 297 297 296 296 297 299 298 298 298 299 298 298 299 300 300 300 301 301 302 303 304 305 306 307 307 308 310 309 310 312 313 314 315 317 319 320 321 322 322 322 322 323 324 323 323 325 326 326 327 329 331 335 338 341 343 346 349 351 352 352 352 351 350 350 352 354 354
290 285 284 285 284 283 284 287 289 285 285 287 290 293 295 295 295 295 295 295 296 295 296 295 296 298 298 299 298 298 297 298 299 300 300 301 301 302 302 303 304 305 306 307 308 309 309 312 313 313 314 314 316 319 320 321 321 322 322 322 322 323 322 323 324 324 325 327 329 332 335 337 339 343 345 344 345 346 349 343 330 339 351 351 340 333
290 289 287 285 283 284 289 291 291 291 289 291 292 293 295 296 296 295 295 295 296 296 297 296 296 296 297 298 299 298 298 298 299 300 300 300 301 302 303 303 303 304 305 306 306 306 308 309 313 314 315 315 317 319 320 320 321 320 321 321 321 321 321 322 322 324 326 328 329 331 333 335 337 340 343 344 345 346 346 348 347 316 315 326 336 327
Wind_Speed
4 6 9 12 6 4 4 7 9 6 4 3 2 3 1 0 4 4 3 3 10 4 7 10 11 10 5 7 9 10 9 8 9 11 12 12 13 13 11 9 11 12 13 11 13 13 14 13 12 11 10 10 10 10 11 11 11 11 11 10 10 8 8 7 7 6 6 5 5 3 5 6 5 5 4 4 4 4 4 4 4 4 4 4 4 3
5 5 9 3 5 6 6 6 5 1 1 2 1 1 1 2 5 4 3 1 6 7 6 8 6 7 7 6 9 9 10 11 12 12 13 14 14 13 14 11 11 10 7 10 11 12 13 12 13 11 10 10 11 9 11 12 12 12 11 11 10 7 8 8 8 7 7 6 6 6 6 5 4 5 5 4 4 5 4 5 5 4 4 4 4 4
5 12 3 5 4 3 1 2 3 4 2 1 2 1 1 4 5 8 3 3 4 6 5 2 7 10 8 7 8 12 14 13 14 14 14 14 13 12 13 12 9 9 10 11 13 13 13 14 13 12 11 11 13 13 13 12 11 11 11 10 9 8 9 8 8 7 7 5 5 5 4 6 4 3 5 5 5 5 5 4 4 4 4 5 4 4
4 5 3 2 4 3 1 2 2 0 0 2 1 1 5 3 1 3 1 3 4 6 3 3 7 6 4 5 10 12 14 12 12 11 10 11 14 15 17 14 11 12 12 13 13 15 14 14 13 12 11 12 11 11 11 11 12 10 10 10 10 9 9 8 8 8 5 4 4 3 5 4 4 4 3 3 2 3 4 4 4 4 4 5 4 4
5 2 3 6 4 4 3 1 2 0 5 1 3 3 2 2 3 6 4 3 2 3 2 1 1 2 4 5 5 8 10 8 9 10 9 9 10 10 8 9 10 12 13 13 13 14 14 14 14 14 13 12 12 12 12 12 12 10 12 11 12 10 10 9 9 8 6 5 5 4 3 3 3 4 3 4 3 4 4 3 4 5 5 5 5 4
4 5 4 4 3 3 3 3 3 4 4 3 4 7 6 3 4 5 3 4 5 4 3 3 3 3 3 7 9 5 7 9 9 12 13 12 11 10 12 14 12 11 11 13 14 14 15 15 14 14 14 13 12 13 12 12 13 12 10 10 10 9 9 9 9 9 8 7 7 7 7 6 5 5 5 6 7 5 5 5 3 4 5 5 4 4
4 1 5 4 4 3 4 4 3 6 5 0 6 8 8 6 5 3 1 2 2 1 3 0 5 6 3 4 5 6 9 12 9 13 14 11 11 12 12 12 13 13 12 12 12 12 14 14 15 15 14 14 14 13 12 11 12 12 11 11 11 10 10 9 9 9 8 7 7 9 9 8 9 8 6 6 5 6 6 4 5 5 4 5 5 5
2 0 3 1 3 3 3 5 4 8 6 3 3 4 7 7 6 5 3 4 5 1 3 0 3 1 5 5 4 7 9 10 10 12 13 13 12 13 13 13 13 14 14 13 14 13 15 15 16 16 15 14 14 13 11 11 11 13 12 12 12 10 10 10 9 9 9 9 8 8 7 7 7 7 7 7 6 5 5 5 5 4 4 5 5 5
3 2 2 2 1 3 5 5 5 9 6 3 4 8 6 7 7 4 4 5 2 1 6 2 1 0 3 4 1 9 7 8 14 14 14 14 14 14 15 15 15 15 15 15 14 15 15 16 16 15 15 15 14 13 13 12 12 12 11 12 11 11 10 10 11 11 10 9 9 9 7 7 6 5 5 5 4 5 5 6 4 5 5 4 5 5
2 3 6 5 5 5 6 5 6 9 4 5 5 3 3 3 2 4 4 3 1 2 4 3 3 2 5 5 1 2 4 10 14 15 15 15 16 16 15 16 16 14 13 14 16 16 15 15 16 16 15 14 14 13 12 12 11 11 10 11 12 12 10 10 12 12 11 10 9 8 8 9 6 4 4 5 6 6 5 6 6 5 5 5 5 5
1 4 6 5 4 5 4 5 8 9 10 3 6 2 0 2 2 3 4 2 3 1 6 7 5 4 2 4 6 9 9 13 10 8 11 13 14 15 16 16 15 15 15 14 15 15 16 15 15 14 16 16 14 12 13 12 12 12 12 13 14 13 10 10 12 12 13 11 9 9 9 9 8 7 6 6 5 5 6 6 6 6 5 5 5 5
3 1 2 1 2 2 1 1 1 5 3 4 1 2 2 1 3 2 1 2 2 4 7 3 8 4 4 3 4 9 6 3 7 12 16 17 18 17 16 15 16 16 15 15 15 16 15 14 13 14 15 15 15 14 14 13 12 12 12 12 14 12 12 11 11 12 12 11 10 9 9 9 8 8 7 9 9 8 8 8 7 6 5 5 4 4
0 2 3 5 2 10 3 1 2 4 4 6 4 3 5 2 1 2 0 2 4 4 2 2 8 3 5 4 3 5 10 12 8 8 8 13 17 17 17 18 16 15 15 15 15 15 15 15 15 15 16 15 15 15 15 15 14 13 13 14 14 14 13 12 12 13 13 12 12 11 10 9 8 8 9 8 8 8 8 7 7 6 6 5 5 6
2 2 6 8 4 5 3 2 3 3 4 7 6 6 5 2 2 3 1 1 2 6 2 0 2 1 3 3 2 7 7 6 8 8 6 5 10 14 15 15 15 15 16 16 16 16 16 16 15 16 15 16 15 16 16 16 14 13 13 14 15 15 14 12 12 13 13 13 13 11 10 9 8 9 9 8 8 8 7 7 8 7 7 7 7 6
4 1 4 6 2 5 3 3 1 2 1 3 1 10 8 5 3 2 3 4 7 7 1 3 3 3 3 5 2 4 4 4 6 9 9 5 6 9 12 11 13 14 14 15 15 16 17 16 16 15 16 16 16 17 16 15 14 14 14 14 15 14 13 13 13 12 13 12 12 11 10 9 8 8 8 8 7 7 8 7 7 7 7 7 7 7
0 2 3 4 4 2 4 3 0 1 1 2 4 4 5 5 4 2 6 5 5 4 2 1 3 4 5 2 1 6 6 8 12 13 13 13 8 6 9 12 13 14 15 15 16 17 17 17 16 15 15 16 15 17 16 16 15 15 14 15 16 16 15 14 13 13 13 12 11 11 11 11 10 8 7 6 6 6 7 8 8 8 7 7 6 6
1 3 5 9 4 4 4 2 3 1 3 2 2 3 3 2 3 4 1 1 3 5 5 1 3 3 5 1 10 16 14 15 16 18 16 13 14 5 10 13 14 14 14 15 16 17 17 16 16 16 16 16 16 16 17 17 16 16 15 15 15 15 14 15 15 14 13 12 11 12 12 10 9 10 10 9 10 9 8 7 7 7 8 7 6 6
1 2 3 7 8 5 4 2 2 4 0 1 2 3 4 2 3 3 3 3 3 4 2 2 1 4 8 3 12 16 19 18 18 16 15 13 11 11 6 8 12 14 15 15 15 14 16 17 18 17 16 18 18 19 18 18 17 16 16 16 17 15 15 14 14 13 12 12 12 11 12 11 11 11 11 9 9 8 7 7 6 6 6 8 7 6
1 2 2 0 4 9 8 3 2 5 8 5 5 1 3 1 1 2 4 1 3 2 2 2 1 2 4 6 11 18 17 19 18 16 15 16 16 13 11 10 10 12 13 14 15 14 15 16 17 17 18 18 18 18 18 17 17 15 15 16 17 18 17 17 14 13 12 12 11 10 12 13 12 11 10 9 7 6 8 9 8 8 8 6 6 6
2 2 2 5 4 5 5 7 4 9 8 5 1 5 4 3 1 2 1 2 5 3 4 2 4 3 4 5 9 9 13 14 16 15 15 14 14 14 12 12 9 12 14 14 15 16 16 17 17 17 17 17 17 17 16 17 16 18 17 16 16 15 14 15 16 15 14 13 12 11 10 10 10 10 10 9 7 8 9 9 9 9 8 9 6 7
0 0 2 7 10 4 6 5 2 4 5 9 11 7 7 3 3 0 2 2 0 4 3 5 2 2 5 5 5 9 10 12 13 14 12 12 14 14 15 13 11 12 14 14 15 15 16 17 16 16 15 15 15 14 14 15 18 17 16 16 17 17 16 15 15 14 13 12 12 12 12 12 11 11 10 10 9 9 9 8 8 8 9 6 7 6
2 4 2 4 7 7 1 2 1 6 7 7 5 7 3 7 5 1 1 2 3 3 2 4 5 0 3 5 5 8 10 10 12 12 12 14 14 16 15 17 13 9 11 12 12 11 12 13 14 14 13 13 13 14 16 16 15 15 16 16 16 15 15 15 15 14 12 11 11 13 12 12 11 10 9 11 10 10 9 8 8 8 6 8 8 7
2 2 4 6 1 1 2 1 2 3 9 10 9 6 3 2 2 3 4 2 2 2 1 1 8 1 2 4 6 8 9 12 12 12 13 13 15 16 16 17 17 15 2 6 4 6 7 7 8 10 12 13 15 14 15 15 15 16 17 17 15 16 16 14 14 13 12 12 12 13 12 11 11 11 11 12 11 10 10 9 9 7 8 9 8 7
1 4 3 2 4 4 4 2 2 4 2 4 7 6 6 6 3 1 2 1 3 4 5 3 3 3 2 4 6 7 8 10 10 13 13 12 13 16 18 18 20 17 17 11 2 6 4 5 7 7 9 11 11 13 15 14 15 15 15 16 15 17 17 15 13 12 12 13 13 13 12 12 11 11 10 11 11 13 12 11 9 7 9 9 7 7
1 2 4 2 2 2 4 3 1 2 5 4 2 5 3 4 5 1 2 2 3 1 0 3 5 2 1 4 7 11 11 12 14 14 13 13 13 13 14 17 15 17 19 17 16 9 3 8 8 7 7 8 7 9 10 12 13 14 14 14 15 15 15 14 13 13 13 12 12 12 13 12 11 11 13 12 10 12 11 11 10 8 9 9 8 8
5 0 1 2 3 2 1 1 2 6 4 2 1 4 6 8 7 6 3 4 3 1 1 2 1 4 4 4 10 11 13 13 13 13 12 12 13 13 14 14 15 17 17 17 17 16 14 11 6 2 8 7 8 9 8 9 10 11 12 13 14 14 13 14 13 13 13 12 13 13 13 13 12 12 13 12 11 12 11 10 10 10 8 9 10 9
3 2 4 3 3 4 2 1 2 1 3 3 4 4 6 3 4 3 3 3 1 2 3 4 1 5 8 12 12 12 10 12 12 15 13 14 14 14 13 12 13 13 14 16 13 13 15 16 13 13 10 2 9 8 9 12 11 12 11 12 13 12 13 13 13 13 13 13 13 13 13 13 14 13 12 12 13 11 10 10 10 10 10 9 10 10
4 5 4 6 5 2 3 0 2 2 2 2 5 3 5 5 3 1 2 2 3 3 3 2 2 5 5 10 9 9 9 8 10 11 13 12 13 11 11 12 16 16 17 16 17 18 16 13 15 16 11 13 9 3 7 9 11 12 12 13 13 13 12 11 12 12 13 13 13 13 13 13 12 13 13 12 11 12 12 12 12 12 11 9 10 10
3 3 1 3 2 1 2 2 3 2 0 1 3 3 4 4 4 2 2 4 3 3 6 3 2 3 4 7 6 7 7 7 8 10 10 9 10 11 14 16 16 17 16 16 14 15 14 14 14 13 14 12 12 12 10 3 9 9 10 11 11 12 13 13 13 13 13 13 13 13 13 12 11 11 12 12 11 11 12 12 12 12 11 11 11 9
3 2 1 3 1 2 3 2 2 3 2 2 3 4 4 3 5 3 6 5 6 5 6 6 4 2 4 6 5 6 5 6 6 5 7 12 15 14 14 13 15 15 16 14 14 13 12 13 13 13 13 14 15 14 11 9 9 5 11 11 12 12 12 12 13 13 14 14 14 12 12 11 11 11 11 11 12 12 12 11 11 11 12 12 12 11
4 1 5 2 2 2 2 4 2 2 1 3 5 6 6 5 4 5 3 3 3 4 5 7 5 2 1 4 2 3 2 2 6 11 12 10 13 14 14 14 14 14 14 14 14 14 13 12 12 14 14 14 14 13 10 11 9 9 6 11 13 14 13 13 13 14 14 15 14 13 12 11 11 11 11 12 12 11 11 12 11 11 10 11 11 11
5 1 2 3 3 2 1 3 4 3 3 3 4 5 5 2 1 1 1 2 1 2 2 1 1 2 3 5 4 2 4 7 9 9 10 9 12 13 13 14 14 14 14 14 13 14 15 15 15 14 14 13 13 12 12 11 11 10 9 8 10 13 13 14 14 14 15 14 13 13 13 12 12 12 12 12 12 12 12 11 11 11 11 11 12 10
1 2 1 1 2 2 3 2 4 3 2 2 1 0 2 3 3 3 1 4 3 1 1 4 2 0 3 3 4 5 5 6 7 7 7 10 10 10 12 12 12 13 14 14 14 14 13 13 13 13 13 12 11 12 12 10 11 10 11 9 10 7 13 15 15 15 14 14 14 14 13 12 12 13 13 13 13 12 11 11 11 12 12 12 12 10
1 4 1 1 1 3 4 7 3 4 4 3 2 0 1 2 3 4 1 3 5 3 2 1 1 1 2 3 5 6 6 4 4 3 3 6 8 9 10 10 10 11 12 11 12 12 12 12 11 11 12 11 12 11 10 9 9 10 9 10 8 8 8 13 13 15 15 15 15 16 16 16 16 15 14 13 13 12 12 12 13 13 12 11 10 10
3 3 2 2 2 2 3 5 4 2 6 2 5 6 3 1 2 3 5 4 4 5 4 2 2 3 3 2 2 3 5 2 0 4 7 7 5 7 9 9 10 11 11 12 13 13 12 12 13 13 13 13 14 12 11 11 11 10 11 11 11 7 8 6 12 13 13 15 15 14 14 15 16 18 17 16 14 13 13 13 13 13 12 11 11 11
3 4 2 1 1 2 2 1 1 4 4 5 7 3 5 2 3 1 3 4 4 4 4 2 4 5 2 4 4 5 6 6 3 2 8 8 7 6 8 8 10 10 10 10 12 12 12 13 12 12 11 12 12 12 9 11 10 10 9 10 8 9 8 9 9 7 11 14 14 14 14 13 12 12 12 14 14 14 14 14 14 14 12 11 11 11
6 3 2 0 0 2 2 3 6 3 6 5 3 3 3 1 2 2 1 1 3 4 5 4 6 7 7 6 5 7 8 1 1 4 8 9 9 6 5 7 8 9 9 9 9 11 10 9 11 11 10 10 11 11 11 10 10 9 10 9 7 7 8 8 6 8 11 10 7 9 10 12 13 13 13 12 13 14 14 14 14 13 10 11 11 12
2 2 2 3 2 3 2 2 3 2 1 4 1 2 0 1 1 3 0 2 3 5 5 5 6 7 8 8 7 9 6 4 2 4 8 10 9 9 8 6 5 7 9 9 8 7 8 8 8 9 10 11 11 12 10 10 10 10 8 7 7 7 6 4 4 4 7 9 9 8 8 10 12 13 13 12 13 14 14 13 11 12 10 12 13 13
4 4 3 5 1 2 1 2 3 3 6 5 5 2 4 2 3 1 2 4 2 5 6 5 6 7 8 9 10 8 5 4 1 5 9 12 11 10 10 10 9 6 7 9 10 10 10 10 9 9 8 8 10 12 12 10 8 7 8 8 7 6 8 8 7 7 7 10 11 10 10 9 11 12 13 13 13 13 13 12 12 12 11 11 11 12
6 3 2 1 1 2 3 2 4 4 2 2 5 3 3 2 1 2 5 5 1 5 5 5 6 7 7 8 8 6 6 5 6 7 10 13 12 11 9 11 13 13 10 8 8 9 9 9 11 12 12 11 9 10 11 12 10 9 9 10 8 7 6 7 8 8 8 9 9 10 9 10 9 10 11 12 12 11 11 11 10 10 10 10 9 10
2 2 2 6 2 3 6 3 2 4 2 2 1 3 4 3 2 0 8 2 1 4 3 4 4 5 5 7 5 5 3 3 7 8 10 10 11 13 13 10 10 10 12 11 9 10 8 9 8 10 10 10 12 11 11 11 10 9 8 8 8 7 8 9 8 7 6 7 7 10 11 8 7 9 10 9 8 5 6 7 9 9 10 12 11 11
1 2 0 2 2 3 3 3 5 4 4 3 3 4 2 1 2 9 2 2 4 2 1 2 4 4 5 4 5 5 7 7 9 9 8 8 8 10 11 13 13 13 11 9 11 9 7 9 10 10 10 9 10 11 10 10 10 8 8 8 8 9 10 11 10 8 7 7 7 7 8 8 9 8 4 6 7 7 8 8 8 9 11 10 10 12
4 4 3 3 2 3 2 1 3 5 2 2 1 2 2 4 4 1 1 1 2 1 2 2 1 4 4 8 7 8 10 9 7 8 8 8 7 9 10 12 12 13 15 16 14 11 10 7 8 9 10 9 9 10 10 11 11 8 8 8 9 9 8 9 11 11 10 9 7 5 5 5 7 7 3 3 3 7 11 10 11 12 11 11 12 13
3 2 1 3 4 4 5 5 6 6 3 5 3 3 3 3 2 1 2 1 0 0 1 2 3 3 4 5 9 11 11 12 10 6 8 8 8 8 8 9 10 11 12 12 12 12 11 12 7 7 8 9 8 8 9 9 12 11 10 10 10 10 10 8 7 9 9 8 7 5 4 4 7 8 5 4 4 5 7 8 10 10 10 11 12 12
6 5 6 3 4 5 6 7 4 1 4 4 4 3 4 4 1 2 3 2 1 2 2 3 5 6 5 6 8 9 12 12 12 9 9 9 9 9 8 8 9 10 11 12 14 14 11 10 13 10 8 6 9 8 7 7 8 14 14 11 10 10 10 10 9 9 7 5 5 5 4 4 5 6 4 5 5 6 6 8 7 7 9 10 12 12
2 1 2 2 4 3 5 8 3 2 4 6 5 5 5 3 2 3 2 2 3 3 2 3 5 6 7 6 8 8 8 11 14 15 10 9 11 11 8 7 8 9 10 10 11 13 14 13 12 10 11 7 5 8 7 6 5 9 9 10 11 11 10 10 10 9 9 8 6 5 6 6 6 7 7 7 6 7 7 7 7 8 9 10 12 13
2 2 2 2 1 1 4 1 5 9 7 6 7 3 3 3 4 5 3 4 4 4 4 5 6 6 7 7 8 10 11 10 13 15 13 10 9 12 13 11 8 8 10 11 11 11 13 13 14 12 11 13 8 5 7 8 6 7 8 9 9 10 10 10 10 9 10 9 8 7 6 7 7 7 7 6 5 4 4 5 5 8 10 12 14 13
4 3 3 5 3 5 7 4 5 3 4 4 4 4 5 5 6 5 4 4 4 4 5 6 5 6 6 7 8 9 11 10 11 13 14 12 9 9 11 13 12 10 10 10 10 9 11 12 14 15 13 10 11 8 6 7 8 8 9 9 10 10 9 10 10 9 9 11 10 8 6 7 9 8 7 6 5 5 5 7 10 12 15 17 17 15
3 6 4 4 5 5 6 10 11 6 8 11 10 9 9 6 6 5 5 5 5 5 6 6 5 6 5 8 9 10 12 12 11 12 14 14 12 9 9 11 13 12 11 11 11 9 10 11 13 16 15 13 11 10 8 7 7 8 8 9 10 10 9 9 10 10 10 9 8 7 6 7 7 6 6 6 7 7 8 9 10 13 16 18 15 14
4 6 2 2 1 5 8 8 4 1 4 5 4 7 7 7 5 4 3 4 5 6 5 5 6 6 7 8 9 9 12 12 11 11 14 14 14 13 10 11 12 14 14 12 10 11 11 12 13 14 14 14 10 9 8 8 7 7 8 8 9 10 9 10 10 9 9 8 8 7 7 7 7 6 6 7 8 9 9 12 17 15 13 13 17 22
8 8 8 7 6 7 10 10 7 6 4 6 5 4 5 5 4 5 5 5 5 5 4 4 6 6 7 8 8 10 12 12 13 12 14 15 14 12 11 11 12 13 14 14 13 13 12 12 12 12 13 14 12 9 8 7 6 6 7 8 9 10 10 9 9 9 8 8 7 7 8 8 8 7 7 7 8 9 9 10 10 17 22 22 18 18
Wind_Direction
146 166 186 205 185 166 183 181 196 205 166 126 107 116 145 208 280 282 259 221 188 177 220 209 222 233 228 188 188 192 185 188 182 186 191 194 192 197 206 197 193 192 194 181 181 180 181 181 179 176 174 178 178 175 175 173 175 174 174 174 182 176 169 163 169 172 166 171 170 165 185 197 191 190 190 189 187 185 179 170 167 168 175 175 166 152
126 187 225 153 149 168 203 194 206 143 151 182 136 139 271 163 268 233 226 246 186 170 245 228 237 243 229 198 191 183 188 197 194 192 195 195 195 197 201 201 196 192 177 175 182 185 182 183 181 177 177 175 174 183 177 180 180 177 173 179 180 172 176 173 178 180 179 182 186 171 183 174 173 177 181 193 197 192 177 167 167 171 165 168 172 157
179 212 152 160 188 152 96 152 169 190 194 128 193 153 353 264 247 279 289 265 186 177 283 157 215 239 226 200 189 185 193 200 200 198 195 188 193 199 203 204 191 178 185 183 186 183 186 185 181 180 181 181 183 179 181 184 179 177 177 179 176 180 182 181 177 177 189 189 176 172 175 173 155 200 194 194 191 177 170 167 164 159 161 166 170 160
202 268 213 181 128 146 225 130 131 83 79 161 103 112 219 231 33 308 323 16 146 169 225 207 211 258 236 204 196 196 195 202 201 197 197 197 195 197 201 198 190 188 184 187 184 187 187 186 183 184 184 184 182 181 183 181 182 182 182 177 177 182 186 183 180 183 179 168 164 161 154 166 151 170 175 145 108 153 148 168 159 154 162 170 169 162
187 232 175 159 147 160 210 182 123 110 276 235 164 164 185 210 227 185 259 6 173 247 99 67 29 313 199 190 225 211 197 197 193 193 201 205 210 202 201 205 201 196 189 188 185 187 187 187 188 188 187 183 184 185 187 183 184 186 185 182 178 179 186 186 182 177 156 143 135 120 88 108 85 55 114 132 154 177 183 150 164 181 167 172 171 166
270 269 131 111 152 147 171 248 217 151 244 317 216 190 206 188 225 266 334 17 24 330 246 139 5 300 260 217 203 173 176 202 188 195 201 202 202 191 195 202 200 202 196 193 189 187 187 188 188 191 187 186 188 189 189 186 185 183 183 182 179 178 182 186 182 170 160 166 160 151 154 164 177 167 164 185 187 176 182 197 167 158 175 176 175 168
197 231 138 171 159 172 170 206 221 154 205 106 271 192 188 192 213 240 337 63 334 223 300 307 156 263 337 239 208 183 191 195 189 200 203 200 199 198 200 199 197 197 197 199 196 185 187 190 190 191 189 190 189 193 187 186 186 185 181 180 180 180 181 182 180 170 167 166 171 175 180 183 187 182 197 188 184 179 193 177 165 178 174 181 178 178
127 56 129 92 155 163 185 231 222 154 155 229 248 175 180 183 212 230 195 172 231 252 314 1 140 206 314 290 209 184 182 198 204 205 204 202 199 200 202 198 196 197 196 195 197 191 189 189 191 192 191 190 193 188 185 186 185 186 182 180 182 182 181 179 173 173 178 179 180 181 180 185 193 194 189 183 182 182 175 175 183 162 186 184 186 178
165 173 151 182 155 185 213 209 199 164 156 210 230 152 169 187 203 199 179 203 218 35 286 321 126 289 267 273 305 157 171 209 214 208 206 203 201 203 203 201 199 197 196 195 196 196 190 191 193 191 191 193 190 188 187 188 187 186 182 181 182 185 180 178 173 174 184 185 185 185 179 186 198 187 177 168 171 174 171 184 179 179 182 188 188 187
291 170 201 162 153 217 226 217 160 165 176 243 176 139 133 132 132 148 184 199 296 93 264 255 186 155 284 285 101 173 213 218 216 211 207 202 201 201 201 202 200 197 197 200 200 197 195 190 192 191 188 188 192 189 188 189 184 183 180 182 183 188 184 178 177 177 182 189 186 184 185 189 186 175 156 161 173 175 173 189 191 190 179 189 196 194
252 296 155 107 186 218 212 230 184 182 192 133 129 130 67 42 46 31 71 110 55 279 250 226 201 146 315 249 185 153 215 210 210 211 211 209 209 205 202 200 198 196 195 198 201 201 200 192 188 184 189 191 189 186 185 188 187 184 184 184 186 190 184 179 182 179 183 187 188 191 187 188 181 176 167 166 179 172 175 191 195 187 196 185 197 186
349 358 113 235 191 311 168 314 247 218 198 169 138 125 101 306 28 60 345 39 168 273 260 239 177 126 160 292 270 250 304 312 214 206 202 204 204 201 200 200 199 195 195 197 197 201 200 196 189 187 190 189 189 185 186 189 187 187 188 186 188 189 186 183 184 183 185 185 191 195 188 187 183 173 177 184 184 184 187 189 192 196 185 198 196 189
337 33 311 312 327 48 354 39 303 43 114 135 115 86 134 257 65 257 58 192 193 198 261 86 130 53 233 223 272 313 307 301 304 286 258 218 207 203 199 197 196 195 193 194 197 197 197 197 191 190 191 188 187 189 187 187 187 188 189 188 187 191 189 188 183 186 187 187 191 193 192 190 177 181 184 189 189 185 189 189 189 183 195 190 200 203
238 273 16 334 3 18 58 94 324 66 11 119 144 151 134 161 160 177 259 247 340 285 287 343 262 172 237 313 318 14 334 323 327 314 279 238 225 213 205 198 196 194 193 194 195 196 197 197 194 191 189 188 190 192 188 186 187 187 189 189 189 192 190 188 187 189 188 193 192 191 192 189 178 187 188 190 190 188 189 185 193 190 194 194 201 194
107 61 350 15 8 335 52 66 210 196 107 206 141 159 173 145 155 191 179 169 188 196 256 297 123 225 162 178 57 353 298 335 3 2 352 305 222 212 211 205 201 196 195 194 195 197 197 197 192 189 189 189 191 191 188 187 187 186 190 189 191 192 192 189 190 189 193 195 194 189 191 187 186 189 191 194 191 185 185 191 193 199 200 200 203 202
161 188 288 298 243 349 12 302 233 145 153 222 173 80 94 211 133 177 201 149 174 138 46 219 199 183 160 205 311 10 355 14 13 8 3 360 333 201 188 194 199 200 199 195 196 197 197 196 193 189 189 189 189 189 189 188 186 188 191 189 191 190 188 191 191 193 194 196 195 191 188 191 191 193 192 191 191 193 191 190 193 199 202 207 202 203
13 19 324 324 349 356 336 302 2 100 144 211 97 152 168 144 104 83 68 11 101 66 185 231 320 329 288 355 355 355 355 3 8 4 358 355 348 290 197 193 197 200 199 198 198 197 196 194 194 192 188 189 187 187 190 189 187 187 187 188 191 193 191 192 192 193 194 194 193 196 193 189 190 193 194 197 196 192 194 191 197 200 205 199 201 200
136 223 301 21 347 313 337 263 199 55 98 102 63 238 300 151 130 125 176 342 56 140 214 34 107 346 18 245 352 347 359 354 360 358 346 345 351 360 284 222 202 199 199 201 201 200 197 195 193 192 191 189 187 188 189 189 186 186 187 187 188 190 191 194 193 194 194 193 196 196 195 193 194 197 201 201 199 193 185 195 199 204 198 206 203 198
93 48 312 234 259 278 326 42 22 337 18 99 152 316 140 138 189 311 101 110 106 179 134 18 9 69 31 315 343 358 353 348 346 346 349 350 352 340 329 289 231 205 199 196 197 197 198 198 196 194 193 190 189 188 187 186 185 186 188 190 189 190 191 189 191 194 194 194 196 196 197 195 197 199 202 200 194 185 193 197 199 200 211 209 204 202
24 128 311 295 343 304 8 35 35 319 332 31 6 28 1 95 107 96 189 173 117 207 94 266 42 31 349 333 341 349 356 346 346 348 350 347 342 338 323 309 255 212 204 199 197 197 197 198 197 195 191 189 189 187 186 184 185 187 189 188 192 193 191 190 193 191 192 194 195 198 197 201 199 197 198 197 187 190 201 205 198 203 205 210 200 207
45 14 64 290 318 36 18 8 7 327 7 352 30 8 6 356 247 70 31 57 97 163 169 144 50 21 334 339 358 7 357 352 356 348 345 348 348 341 336 318 277 225 205 203 200 198 197 195 197 195 190 191 189 185 182 184 186 189 187 190 190 188 190 195 195 191 194 190 197 196 197 198 197 200 197 196 194 198 206 206 204 205 209 193 206 201
53 16 100 312 21 35 128 290 43 64 59 69 76 58 298 3 24 90 156 2 41 81 175 108 126 257 327 355 350 8 353 2 359 356 355 354 354 356 348 342 329 231 215 209 203 201 197 198 197 193 187 187 188 183 185 186 185 187 188 191 190 190 193 191 191 194 192 192 195 197 197 198 197 198 197 199 200 205 207 204 206 207 195 200 210 196
129 155 99 47 63 139 167 1 344 92 77 79 65 35 352 79 104 72 109 308 25 356 40 151 119 151 80 9 15 7 358 4 4 3 4 5 4 2 0 358 4 3 300 206 211 193 190 198 199 195 192 189 186 188 189 184 187 187 189 190 190 190 195 192 192 191 188 191 193 198 198 196 196 195 198 202 204 207 205 205 208 196 199 210 210 200
68 45 31 331 314 299 302 281 17 30 96 20 31 27 16 26 340 207 179 189 114 344 42 342 81 186 248 36 17 7 355 352 0 9 6 11 12 11 8 9 13 14 8 7 108 141 147 160 172 184 196 194 187 191 191 189 189 188 189 190 189 194 193 191 191 188 190 192 197 196 194 195 196 193 197 203 208 211 209 207 204 192 204 211 209 203
65 325 108 60 5 341 334 358 346 340 52 56 31 345 358 353 7 61 78 24 76 29 179 124 136 169 275 34 24 6 3 5 2 357 5 4 10 9 13 14 14 19 20 17 12 12 103 149 168 187 191 191 195 189 191 197 193 190 190 189 192 195 192 192 189 189 191 191 192 194 197 198 193 196 199 205 207 212 212 210 203 195 202 204 207 209
80 309 85 113 127 134 217 270 269 320 336 329 22 353 359 22 2 20 22 347 80 273 101 126 241 252 287 12 27 17 2 4 359 347 353 15 12 13 12 17 21 26 25 20 18 20 16 12 7 181 174 178 185 181 183 194 195 197 193 193 194 192 190 191 189 191 190 190 193 197 197 198 197 200 201 204 206 210 210 210 209 203 203 198 205 206
115 59 75 122 142 173 195 202 257 323 354 29 335 20 353 357 5 80 112 77 20 278 337 243 129 335 351 15 17 11 9 4 356 350 352 2 5 11 8 14 22 27 30 23 21 18 21 22 17 13 354 236 182 182 180 185 190 193 190 194 194 193 191 189 189 189 191 191 196 197 199 197 201 200 202 204 208 208 207 207 206 206 208 201 204 202
59 63 19 75 66 147 180 228 312 8 333 294 2 349 344 349 348 39 100 237 183 67 322 266 159 20 351 17 13 7 5 359 358 354 350 357 1 360 357 7 21 25 25 26 24 22 19 18 20 16 10 8 346 229 181 186 193 191 191 193 191 190 188 189 188 191 193 194 197 200 200 202 199 201 203 204 204 205 207 207 207 207 208 201 204 206
114 100 7 78 16 349 323 306 331 20 198 270 295 310 327 315 352 2 242 218 138 151 211 252 218 7 24 12 13 14 1 3 353 355 341 335 350 1 14 15 18 18 13 17 15 15 15 19 15 12 14 8 11 9 350 290 196 191 197 192 192 188 192 185 187 190 193 196 199 202 202 199 199 202 203 204 203 206 208 209 209 208 206 205 208 208
84 21 158 84 118 7 2 13 7 25 324 338 290 283 281 296 287 260 259 245 186 216 226 263 305 89 61 357 24 25 7 3 348 332 355 9 5 7 11 15 15 13 11 9 9 7 8 11 12 14 12 13 12 7 3 359 345 247 192 193 190 194 191 182 189 190 193 198 201 201 199 197 199 200 201 202 205 207 208 209 210 210 211 211 211 212
100 339 28 48 71 5 334 357 12 2 22 303 284 281 272 276 296 263 233 276 219 261 262 261 277 278 127 352 6 34 11 348 4 19 15 7 7 7 10 13 11 7 1 359 0 2 2 2 7 12 13 10 8 2 1 354 343 343 280 198 191 194 188 186 189 193 194 199 199 198 195 195 199 198 200 204 206 206 206 210 209 210 213 214 214 215
61 228 45 63 63 326 318 6 307 304 285 236 262 278 284 301 308 299 282 313 341 260 336 86 258 273 301 347 337 17 27 31 32 17 10 7 10 9 11 10 8 3 357 353 352 356 358 1 4 3 2 0 359 0 0 352 349 348 351 320 219 192 190 188 192 193 197 198 196 195 195 197 196 198 203 201 205 204 206 207 208 212 212 213 215 216
130 111 68 55 66 279 258 287 295 309 13 15 323 247 289 260 257 293 316 43 24 243 144 189 230 222 282 316 355 357 24 34 32 21 10 10 9 12 12 11 4 359 355 349 350 352 353 355 356 355 351 352 353 356 350 348 349 346 338 325 322 254 192 194 192 194 195 197 195 195 195 194 195 201 203 204 204 203 202 202 207 212 212 214 215 210
61 99 128 146 115 250 300 321 327 37 10 254 224 276 239 281 292 300 59 35 339 29 144 122 136 301 317 351 24 359 356 37 32 21 45 22 359 357 5 11 7 360 349 346 347 347 346 350 351 349 344 338 343 342 337 348 343 338 327 328 314 321 238 193 195 193 196 196 196 194 189 188 192 197 202 204 203 201 200 201 208 210 211 214 209 208
113 81 143 144 108 275 319 353 33 329 238 243 298 286 275 277 44 102 87 45 21 28 76 83 14 1 354 323 332 320 296 245 208 49 35 26 18 2 347 354 6 0 353 347 344 346 347 344 344 348 344 345 342 338 341 349 349 339 345 343 343 341 346 267 202 194 196 198 198 198 201 200 196 196 197 197 198 198 201 204 209 210 211 210 208 209
151 120 164 63 137 31 40 68 93 244 251 278 285 316 322 59 3 97 118 76 2 18 344 21 336 321 347 333 325 299 286 229 197 30 26 17 13 360 347 347 346 350 354 348 341 338 341 344 342 338 338 334 333 334 344 347 336 339 341 337 343 356 1 8 334 272 216 204 202 199 200 204 214 220 209 198 194 196 202 205 206 209 208 208 212 215
136 108 101 175 155 163 201 153 223 317 332 335 14 5 25 64 351 50 302 279 59 3 9 344 335 336 334 340 329 326 325 180 312 309 11 354 351 350 343 329 325 330 336 333 338 333 330 334 333 328 337 334 331 333 343 335 337 338 334 331 336 356 9 359 341 329 322 298 254 212 205 202 205 209 213 209 201 200 203 204 207 211 203 207 212 213
122 133 231 113 248 130 136 311 348 19 272 278 238 267 130 276 256 253 123 275 55 358 0 0 351 340 331 333 346 340 324 103 53 337 339 339 339 334 333 315 309 319 325 324 325 322 331 331 327 330 339 341 333 334 331 332 335 337 322 318 337 2 355 328 327 331 307 291 284 267 229 212 209 210 210 207 208 207 207 206 208 210 200 207 210 214
33 76 131 138 164 78 110 163 207 166 239 205 217 239 293 311 251 267 76 294 110 347 343 350 355 358 357 348 346 342 31 59 283 319 324 332 331 333 328 323 322 314 315 320 324 329 335 333 335 336 334 337 344 332 327 328 336 339 329 338 343 350 345 351 349 341 323 300 284 261 249 238 222 215 210 207 210 211 209 207 207 208 203 208 212 218
42 9 42 71 118 176 162 155 242 202 235 252 219 259 240 247 219 81 4 278 7 317 332 356 6 8 349 355 351 3 29 358 321 318 323 321 322 321 327 327 325 326 326 323 320 331 325 332 335 345 347 347 336 323 332 335 338 351 349 337 336 347 355 349 337 329 330 312 305 300 267 242 231 221 214 210 212 211 213 212 210 210 204 210 210 219
8 350 64 187 182 216 208 251 318 297 267 232 230 260 294 182 135 227 223 187 342 290 328 12 2 357 353 348 5 346 320 302 287 299 307 309 326 326 327 326 316 314 318 320 325 328 324 332 341 338 337 334 331 335 339 340 339 346 346 340 329 345 346 333 321 319 312 307 303 301 308 311 258 220 210 208 204 207 238 224 222 215 208 218 217 220
20 87 323 91 148 196 199 202 237 253 231 187 250 224 257 63 199 218 171 192 226 264 13 16 351 334 346 320 315 286 285 293 302 305 307 315 319 311 318 322 325 323 315 314 318 324 327 329 328 327 330 339 331 329 330 341 344 338 339 339 334 338 338 326 320 312 308 285 273 272 260 282 310 317 275 206 179 180 203 221 220 219 219 219 217 217
197 130 205 184 194 72 108 208 279 269 251 127 223 65 166 163 228 154 220 286 161 345 347 323 350 304 340 317 307 297 296 299 296 298 303 306 309 313 314 318 321 321 320 323 324 323 324 325 321 319 325 328 334 331 326 334 340 339 338 337 329 331 328 325 318 314 306 289 273 275 250 236 258 251 263 316 275 206 208 213 216 218 220 219 219 221
203 118 230 256 186 156 170 198 209 214 170 190 141 172 223 213 162 154 125 247 128 235 281 301 285 275 294 292 305 306 299 299 298 293 300 299 301 303 304 306 309 312 315 310 310 312 319 317 310 308 312 321 323 325 328 336 333 334 341 336 333 323 322 317 298 285 279 286 281 287 303 257 233 238 236 222 227 266 258 226 213 217 218 218 219 222
212 175 178 160 218 156 196 213 239 235 194 218 182 207 214 224 186 185 151 179 202 272 227 274 280 288 281 285 288 291 300 295 293 297 296 296 296 295 296 297 296 303 304 306 307 310 312 311 315 314 307 305 316 320 324 328 332 330 332 330 323 319 317 312 302 288 272 249 267 282 282 248 256 256 218 203 209 227 240 260 259 237 226 223 225 224
281 163 176 100 250 274 251 215 204 244 243 247 242 221 215 227 235 165 173 196 212 212 215 257 278 282 290 282 282 286 278 290 298 298 297 299 300 293 288 284 294 296 299 303 306 310 311 311 307 305 306 300 307 313 315 317 318 317 310 315 321 319 312 313 312 307 299 293 281 281 289 281 265 252 237 231 217 211 210 223 234 246 246 236 230 227
248 153 126 181 249 64 274 317 197 232 246 248 236 237 238 211 202 174 189 202 216 204 232 241 252 273 276 281 275 278 280 280 285 288 293 294 291 296 295 292 284 286 293 297 296 305 309 311 308 304 306 305 314 306 309 316 314 305 307 312 314 312 312 312 311 307 305 301 302 297 295 290 286 286 282 276 264 240 232 232 238 239 244 243 241 229
310 173 152 206 147 174 235 236 247 244 243 239 213 236 246 228 212 204 202 200 199 209 214 236 240 262 270 278 277 276 279 279 277 282 289 288 284 283 290 294 294 291 286 287 291 295 298 298 297 298 301 300 308 312 308 309 314 315 315 315 317 317 313 312 311 307 304 304 302 301 299 289 279 274 277 278 270 268 252 225 222 226 233 228 227 223
148 128 223 169 192 265 318 280 260 271 273 259 247 239 240 220 197 209 210 212 210 223 231 231 219 235 251 271 279 281 281 277 272 276 278 283 283 277 276 283 288 288 288 289 291 292 286 289 291 291 292 294 299 305 310 309 311 316 315 315 313 312 313 308 308 304 293 289 290 291 292 283 279 272 266 262 260 252 242 236 225 217 220 222 222 220
117 210 189 104 269 261 223 245 135 158 266 284 259 231 224 205 189 218 208 221 218 229 228 232 242 229 239 252 264 273 276 276 275 274 275 274 276 278 274 274 279 283 285 282 282 282 281 279 280 282 285 288 293 296 300 304 307 310 313 314 314 314 308 307 304 299 293 288 286 288 287 286 285 281 274 273 269 267 262 241 234 236 233 235 226 224
188 204 150 198 176 241 236 224 188 195 228 235 220 221 208 193 192 219 235 243 250 238 233 244 272 283 264 253 248 261 266 272 272 269 270 272 272 272 270 267 272 279 282 285 285 281 277 275 273 274 276 281 288 290 293 294 299 305 311 313 311 312 308 304 300 297 294 289 284 280 282 284 284 275 264 264 268 268 268 279 257 237 238 241 238 225